Regional Weather Roundup
Issued by NWS Wakefield, VA

Home | Current Version | Previous Version | Graphics & Text | Print | Product List | Glossary On
Versions: 1 2 3 4 5 6 7 8 9 10 11 12 13 14 15 16 17 18 19 20 21 22 23 24 25 26 27 28 29 30 31 32 33 34 35 36 37 38 39 40 41 42 43 44 45 46 47 48 49 50
305
ASUS41 KAKQ 101814
RWRAKQ

REGIONAL WEATHER ROUNDUP
NATIONAL WEATHER SERVICE WAKEFIELD VA
100 PM EST WED FEB 10 2016

Note: "fair" indicates few or no clouds below 12,000 feet with no
significant weather and/or obstructions to visibility. * = Denotes
station may not report precipitation (e.g., rain,snow,etc.),
thunder or fog.

VAZ042-051-052>054-056-101900-
NORTHERN VIRGINIA

CITY           SKY/WX    TMP DP  RH WIND       PRES   REMARKS
WASH NATIONAL  FAIR      39  18  42 NW10G22   29.79F
DULLES         FAIR      35  15  44 NW17      29.79S WCI  25
FORT BELVOIR   PTSUNNY   37  15  39 W10       29.79F
QUANTICO       PTSUNNY   39  17  41 NW10G18   29.81F
FREDERICKSBRG* PTSUNNY   39  19  45 W10       29.79F
STAFFORD*      PTSUNNY   36  16  44 NW7       29.83F
WARRENTON      PTSUNNY   39  22  50 SW10      29.78F
CULPEPER*      CLOUDY    35  14  42 W3        29.79F
MANASSAS*      PTSUNNY   37  18  44 NW13      29.79F
LEESBURG*      PTSUNNY   34  21  60 W12G18    29.80S
WINCHESTER     CLOUDY    34  16  47 W14G21    29.77F WCI  24
FRONT ROYAL*   CLOUDY    32  12  43 W9G18     29.77F
LURAY*         MOCLDY    34  12  40 W17       29.76F WCI  23
$$

VAZ048-049-060>072-079>083-101900-
CENTRAL AND SOUTH CENTRAL VIRGINIA

CITY           SKY/WX    TMP DP  RH WIND       PRES   REMARKS
RICHMOND       FAIR      39  15  37 W16       29.80F
CHESTERFIELD*  FAIR      39  10  30 W10G18    29.82F
PETERSBURG*    FAIR      41   8  26 W10       29.82F
HANOVER        FAIR      39  17  41 W12G18    29.81F
TAPPAHANNOCK*  FAIR      39  19  44 W8G25     29.80F
QUINTON*       FAIR      39  17  40 W13G20    29.80F
CHARLOTTSVILLE FAIR      37  12  35 VRB7      29.78F
GORDONSVILLE*  FAIR      37  13  37 SW9G16    29.77F
ORANGE*        FAIR      36  16  44 W12       29.80F
LOUISA*        FAIR      39  16  38 SW9G17    29.77F
BUMPASS*       FAIR      37  15  40 SW8       29.79F
FARMVILLE*     FAIR      39  13  34 W7G16     29.81F
CREWE*         FAIR      38  15  39 W9G17     29.82F
FORT PICKETT*  FAIR      38  13  37 W9G17     29.82F
CHASE CITY*    MOCLDY    36  13  38 NW7       29.84F
CLARKSVILLE*   MOCLDY    36  16  44 W10G17    29.85F
SOUTH HILL*    FAIR      37  15  40 W7G17     29.89F
LAWRENCEVILLE* FAIR      39  16  38 W13G18    29.82F
EMPORIA*       FAIR      37  18  44 W6        29.85F
$$

VAZ088>098-101900-
SOUTHEAST VIRGINIA

CITY           SKY/WX    TMP DP  RH WIND       PRES   REMARKS
NORFOLK        FAIR      41  16  36 SW10      29.81F
VIRGINIA BEACH FAIR      46  16  30 W10       29.81F
NORFOLK NAVAL  FAIR      40  16  37 W12G18    29.83F
WEST POINT*    FAIR      40  17  40 W12       29.82F
SALUDA*        MOCLDY    39  20  47 W7        29.80F
NEWPORT NEWS   FAIR      40  19  43 SW18      29.81F
LANGLEY AFB    SUNNY     40  19  42 SW18      29.80F
FORT EUSTIS    FAIR      40  15  36 W8        29.79F
WILLIAMSBURG*  FAIR      45  19  36 W14       29.82F
HR EXEC AP*    FAIR      43  19  39 W12       29.84F
FRANKLIN*      FAIR      38  18  43 SW7G20    29.84F
US460-WAKEFLD  FAIR      40  16  37 SW10      29.82F
$$

VAZ020-022-025-037-045-101900-
WEST CENTRAL AND SOUTHWEST VIRGINIA

CITY           SKY/WX    TMP DP  RH WIND       PRES   REMARKS
STAUNTON*      FAIR      34  12  39 W12       29.79F
WAYNESBORO*    MOCLDY    29   7  39 W15G21    29.78S WCI  18
HOT SPRINGS VA CLOUDY    15   6  68 W21       29.62F WCI  -3
LYNCHBURG      FAIR      30  11  45 W12G18    29.84F WCI  20
DANVILLE       PTSUNNY   36  13  38 W5G16     29.87F
SOUTH BOSTON*  FAIR      37  11  35 W14       29.85F
MARTINSVILLE   CLOUDY    31   9  39 NW15      29.89F WCI  21
ROANOKE        CLOUDY    30   8  39 W18G24    29.87F WCI  18
BLACKSBURG     CLOUDY    21   9  60 NW13      29.85S WCI   9
DUBLIN*        CLOUDY    22  10  59 W15       29.84F WCI   9
MARION*        CLOUDY    19   8  63 W18G25    29.84F HAZE    WCI   3
HILLSVILLE*    CLOUDY    17   6  62 W17G23    29.78F WCI   2
RICHLANDS*     CLOUDY    17   4  56 W8G17     29.84F
WISE*          LGT SNOW  18   7  62 SW13      29.88S WCI   4
ABINGDON*      CLOUDY    21   6  53 W9G21     29.91F
$$

MDZ021>025-VAZ099-100-101900-
SOUTHERN MARYLAND AND THE DELMARVA PENINSULA

CITY           SKY/WX    TMP DP  RH WIND       PRES   REMARKS
PATUXENT RIVER MOSUNNY   39  19  44 W13       29.79F
BAY BRIDGE APT   N/A     36  18  48 W10       29.78F
LEONARDTOWN    SUNNY     36  18  48 W7G16     29.79F
DOVER          MOSUNNY   36  23  59 W16G23    29.72F
GEORGETOWN     CLOUDY    36  19  50 W10G23    29.76F
EASTON         PTSUNNY   36  21  55 NW17G25   29.81F
CAMBRIDGE      MOSUNNY   34  19  55 W10G16    29.78F
SALISBURY      CLOUDY    35  20  54 W16G23    29.77F
OCEAN CITY     CLOUDY    36  23  59 NW8G21    29.77F
WALLOPS ISLAND PTSUNNY   36  21  54 NW16G24   29.78F
ACCOMACK*      FAIR      36  21  55 W12G18    29.80F
$$

NCZ012>017-030>032-101900-
NORTH CENTRAL AND EASTERN NORTH CAROLINA

CITY           SKY/WX    TMP DP  RH WIND       PRES   REMARKS
ROANOKE RAPIDS FAIR      37  18  44 W10G18    29.85F
RALEIGH        MOSUNNY   38  14  37 W8G16     29.88F
ELIZABETH CITY SUNNY     39  20  46 SW14G20   29.84F
AHOSKIE*       SUNNY     39  18  42 CALM      29.85F
EDENTON*       SUNNY     40  19  42 W9G18     29.86F
CURRITUCK*     SUNNY     39  22  50 W10G16    29.84F
KILL DEVIL HLS SUNNY     39  21  48 W12G20    29.84F
MANTEO         SUNNY     38  21  49 W9        29.86F
CAPE HATTERAS  SUNNY     40  22  48 W10G17    29.88F
TARBORO*       FAIR      40  18  40 W8        29.88F
GOLDSBORO      SUNNY     41  16  36 W8G18     29.87F
WASHINGTON     SUNNY     38  18  44 W8G17     29.87F
GREENVILLE     SUNNY     37  19  48 NW8       29.90F
NEW BERN       SUNNY     41  17  38 W16G22    29.89F
WILMINGTON     SUNNY     43  19  38 W14       29.91F
$$

VAZ048-101900-
ELSEWHERE

CITY           SKY/WX    TMP DP  RH WIND       PRES   REMARKS
HARRISBURG PA  CLOUDY    32  19  58 W20       29.73F WCI  20
BALTIMORE      PTSUNNY   37  18  46 W16G24    29.76F
ANNAPOLIS      MOSUNNY   37  18  46 W10G18    29.77F
ANDREWS AFB    FAIR      36  16  43 W15G22    29.76F
PHILADELPHIA   CLOUDY    35  18  49 W16G26    29.72F
HENDERSON NC   MOSUNNY   37  12  36 W8        29.85F
GREENSBORO     MOSUNNY   35  10  35 NW15      29.86F
ROCKY MOUNT    SUNNY     38  19  46 W10G18    29.88F
$$

VAZ100-101900-
MARINE

STATION/POSITION TIME  TEMP    WIND        PRES    WAVE   SWELL
                       AIR SEA DIR/SP/G            HT/PER HT/PER
                 (UTC) (F)     (DEG/KT/KT) (MB)    (FT/S) (FT/S)
BRANDYWINE LGT   1700   33     310/ 22/ 28 1007.1F
CAPE MAY NJ      1700   34 42  300/ 20/ 23 1006.9F
LEWES DE         1700   34 41  300/ 17/ 19 1007.4F
15NM E FENWICK I 1750   35 43              1007.4F   5/13
OCEAN-CITY-INLET 1700   34 41  320/ 12/ 16 1007.6F
WACHAPREAGUE VA  1700   36 42  300/  3/  7 1009.5F
THOMAS POINT MD  1800   34 39  290/ 16/ 18 1008.6F
GOOSES REEF MD   1800   36 40  300/ 12/ 17 1009.5F   2/ 3
COVE POINT MD    1700   34     330/ 10/ 13 1009.6F
SOLOMONS ISLAND  1700   36 41  290/  9/ 12   N/A
BISHOPS HEAD MD  1700   34 39  300/ 13/ 16 1008.3F
PINEY POINT MD   1700          330/ 13/ 15   N/A
POTOMAC MD       1800   35 40  310/ 10/ 14 1007.8F   1/ 3
CAMBRIDGE MD     1700   34 40  290/ 13/ 16 1008.1F
LEWISETTA VA     1700   35 41  280/ 10/ 14 1009.3F
RAPPAHANNOCK LGT 1700          280/ 12/ 15 1010.0F
STINGRAY PT      1800   36 42  310/  8/ 10 1008.9F   1
YORK RVR RNG VA  1700   36     280/  9/ 12 1009.4F
YORKTOWN VA      1700   36 43  270/ 10/ 13 1009.7F
JAMESTOWN VA     1800   37 44  300/ 10/ 14   N/A     1
DOMINION TERM VA 1700   36     300/ 12/ 15 1010.2F
KIPTOPEKE VA     1700      42  300/ 11/ 14   N/A
CHES BAY BRIDGE  1700   35 42  250/ 13/ 16 1009.9F
CAPE HENRY VA    1700   36     280/ 11/ 14   N/A
CHESAPEAKE LGHT  1700   37     280/ 13/ 14 1011.1F
WILLOUBY STN VA  1700   35     270/ 11/ 14 1011.0F
1ST LANDING BUOY 1800      43                N/A     2/ 3
64NM E OF VA BCH 1650   37 50  290/ 17/ 23 1009.8    7/ 6   3/13
DUCK PIER NC     1700   35     260/ 13/ 15 1010.7F
OREGON INLET NC  1700   36 42  250/  8/ 12 1011.6F
HATTERAS NC      1700   36 49  270/ 17/ 22 1012.2F
DIAMOND SHLS NC  1750   39 72  280/ 17/ 23 1011.9F   7/ 7   3/14
$$




USA.gov is the U.S. government's official web portal to all federal, state and local government web resources and services.